Regional Weather Roundup
Issued by NWS

Home | Current Version | Previous Version | Graphics & Text | Print | Product List | Glossary Off
Versions: 1 2 3 4 5 6 7 8 9 10 11 12 13 14 15 16 17 18 19 20 21 22 23 24 25 26 27 28 29 30 31 32 33 34 35 36 37 38 39 40 41 42 43 44 45 46 47 48 49 50

000
ASUS43 KTOP 291459
RWRKS

WEATHER ROUNDUP FOR KANSAS
NATIONAL WEATHER SERVICE GOODLAND KS
1000 AM CDT SUN MAY 29 2016

NOTE:  "FAIR" INDICATES FEW OR NO CLOUDS BELOW 12,000 FEET WITH NO
SIGNIFICANT WEATHER AND/OR OBSTRUCTIONS TO VISIBILITY.

KSZ001>006-013>018-027>032-041>047-291600-
NORTHWEST KANSAS

CITY           SKY/WX    TMP DP  RH WIND       PRES   REMARKS
GOODLAND       SUNNY     68  51  54 S12       30.14S
HAYS           SUNNY     75  59  57 S10       30.12S
HILL CITY      MOSUNNY   73  57  57 S9        30.12S
RUSSELL        SUNNY     75  57  53 SW10      30.11R
$$

KSZ061>065-074>080-084>089-291600-
SOUTHWEST KANSAS

CITY           SKY/WX    TMP DP  RH WIND       PRES   REMARKS
DODGE CITY     CLOUDY    72  61  68 S9        30.13S
ELKHART          N/A     68  58  70 S18         N/A
GARDEN CITY    SUNNY     73  54  51 SW12      30.14R
GREAT BEND     CLOUDY    73  59  60 S10       30.12S
LIBERAL        MOSUNNY   70  57  64 S13       30.16S
$$

KSZ066>073-081>083-090>101-291600-
SOUTHEAST KANSAS

CITY           SKY/WX    TMP DP  RH WIND       PRES   REMARKS
CHANUTE        MOSUNNY   78  69  73 SW6       30.13R
COFFEYVILLE    CLOUDY    78  70  76 W7        30.13R
HUTCHINSON     SUNNY     78  66  66 W6        30.12F
MEDICINE LODGE   N/A     74  64  71 VRB7      30.13R
NEWTON         SUNNY     75  64  69 SW12      30.16S
PARSONS        SUNNY     77  70  79 W6        30.15R
WICHITA INTL   MOSUNNY   79  71  76 SW7       30.12R
WICHITA JABRA  SUNNY     78  69  73 SW7       30.13R
WINFIELD       MOSUNNY   79  71  76 S7        30.14S
$$

KSZ007>012-019>026-033>040-048>060-102>105-291600-
NORTHEAST KANSAS

CITY           SKY/WX    TMP DP  RH WIND       PRES   REMARKS
CONCORDIA      PTSUNNY   65  60  84 VRB3      30.12F
EMPORIA        SUNNY     78  65  63 W5        30.12S
LAWRENCE       SUNNY     77  65  66 N5        30.11R
MANHATTAN      SUNNY     78  61  55 SW9       30.11S
OLATHE IND     SUNNY     78  61  55 SW9       30.12S
OLATHE EXE     SUNNY     77  60  55 SW8       30.12R
SALINA         SUNNY     79  63  57 SW7       30.11F
TOPEKA BILLARD SUNNY     78  61  55 CALM      30.11R
TOPEKA FORBES  SUNNY     79  62  56 SW8       30.11R
$$



USA.gov is the U.S. government's official web portal to all federal, state and local government web resources and services.